Precipitable_Water
0.28 0.28 0.28 0.28 0.28 0.26 0.26 0.26 0.26 0.24 0.24 0.24 0.24 0.22 0.22 0.22 0.22 0.22 0.22 0.20 0.20 0.20 0.20 0.20 0.20 0.20 0.20 0.20 0.20 0.22 0.22 0.22 0.24 0.24 0.26 0.26 0.26 0.28 0.28 0.28 0.28 0.28 0.28 0.28 0.28 0.30 0.30 0.30 0.30 0.30 0.30 0.30 0.30 0.30 0.32 0.32 0.32 0.32 0.32 0.34 0.34 0.34 0.36 0.36 0.36 0.36 0.36 0.38 0.38 0.38 0.40 0.38 0.38 0.38 0.36 0.36 0.38 0.38 0.36 0.38 0.38 0.38 0.38 0.38 0.38 0.38
0.28 0.28 0.28 0.28 0.28 0.26 0.26 0.26 0.26 0.24 0.24 0.22 0.22 0.22 0.22 0.22 0.22 0.20 0.20 0.20 0.20 0.20 0.20 0.20 0.20 0.20 0.20 0.20 0.22 0.22 0.22 0.24 0.24 0.26 0.26 0.26 0.26 0.26 0.26 0.28 0.28 0.28 0.28 0.28 0.28 0.28 0.30 0.30 0.30 0.30 0.30 0.30 0.30 0.32 0.32 0.32 0.32 0.32 0.34 0.34 0.34 0.34 0.36 0.36 0.36 0.36 0.38 0.38 0.38 0.38 0.38 0.36 0.36 0.36 0.36 0.36 0.36 0.36 0.36 0.36 0.36 0.36 0.36 0.36 0.38 0.38
0.28 0.28 0.28 0.28 0.28 0.26 0.26 0.24 0.24 0.24 0.24 0.22 0.22 0.22 0.22 0.20 0.20 0.20 0.20 0.20 0.20 0.20 0.20 0.20 0.20 0.20 0.22 0.22 0.22 0.22 0.22 0.24 0.26 0.26 0.26 0.26 0.26 0.26 0.26 0.28 0.28 0.28 0.28 0.28 0.28 0.28 0.28 0.28 0.30 0.30 0.30 0.30 0.30 0.32 0.32 0.32 0.32 0.32 0.34 0.34 0.34 0.34 0.36 0.36 0.36 0.36 0.36 0.36 0.36 0.36 0.36 0.34 0.34 0.34 0.34 0.34 0.34 0.34 0.36 0.36 0.36 0.36 0.36 0.36 0.36 0.38
0.26 0.26 0.26 0.28 0.26 0.26 0.24 0.24 0.24 0.24 0.24 0.22 0.22 0.22 0.22 0.20 0.20 0.20 0.20 0.20 0.20 0.20 0.22 0.22 0.22 0.22 0.22 0.22 0.22 0.24 0.24 0.26 0.26 0.26 0.26 0.26 0.26 0.26 0.26 0.26 0.28 0.28 0.28 0.28 0.28 0.28 0.28 0.28 0.30 0.30 0.30 0.30 0.30 0.30 0.32 0.32 0.32 0.32 0.34 0.34 0.34 0.34 0.36 0.36 0.36 0.34 0.36 0.36 0.34 0.34 0.34 0.34 0.34 0.34 0.34 0.34 0.34 0.34 0.34 0.36 0.36 0.36 0.36 0.36 0.36 0.36
0.26 0.26 0.26 0.26 0.26 0.26 0.24 0.24 0.24 0.24 0.24 0.22 0.22 0.20 0.20 0.20 0.20 0.20 0.20 0.20 0.20 0.20 0.22 0.22 0.22 0.22 0.24 0.24 0.24 0.24 0.24 0.24 0.26 0.26 0.26 0.26 0.26 0.26 0.26 0.26 0.26 0.26 0.28 0.28 0.28 0.28 0.28 0.28 0.30 0.30 0.30 0.30 0.30 0.30 0.32 0.32 0.32 0.32 0.32 0.34 0.34 0.34 0.34 0.34 0.34 0.34 0.34 0.34 0.34 0.34 0.34 0.34 0.34 0.34 0.34 0.34 0.34 0.34 0.34 0.34 0.34 0.36 0.36 0.36 0.36 0.36
0.26 0.26 0.26 0.26 0.24 0.24 0.24 0.22 0.22 0.22 0.22 0.22 0.20 0.20 0.20 0.20 0.20 0.20 0.20 0.20 0.22 0.22 0.22 0.24 0.24 0.24 0.24 0.24 0.24 0.24 0.24 0.24 0.24 0.24 0.24 0.26 0.26 0.26 0.26 0.26 0.26 0.26 0.26 0.28 0.28 0.28 0.28 0.28 0.30 0.30 0.30 0.30 0.30 0.30 0.32 0.32 0.32 0.32 0.32 0.32 0.32 0.32 0.32 0.32 0.32 0.32 0.32 0.32 0.32 0.32 0.34 0.34 0.34 0.34 0.34 0.34 0.34 0.34 0.34 0.34 0.34 0.34 0.36 0.36 0.36 0.36
0.26 0.26 0.26 0.24 0.24 0.24 0.22 0.22 0.22 0.20 0.20 0.20 0.20 0.18 0.20 0.20 0.20 0.22 0.22 0.22 0.22 0.22 0.24 0.24 0.24 0.24 0.22 0.22 0.24 0.24 0.24 0.24 0.24 0.24 0.24 0.24 0.24 0.24 0.26 0.26 0.26 0.26 0.26 0.28 0.28 0.28 0.28 0.28 0.30 0.30 0.30 0.30 0.30 0.30 0.30 0.30 0.32 0.32 0.30 0.30 0.30 0.30 0.30 0.30 0.30 0.30 0.32 0.32 0.32 0.32 0.32 0.32 0.32 0.32 0.34 0.34 0.34 0.34 0.34 0.34 0.34 0.34 0.36 0.36 0.36 0.36
0.24 0.24 0.24 0.22 0.22 0.22 0.22 0.20 0.20 0.20 0.20 0.20 0.18 0.18 0.18 0.20 0.20 0.22 0.22 0.24 0.24 0.22 0.22 0.22 0.22 0.22 0.22 0.22 0.22 0.22 0.22 0.24 0.24 0.24 0.24 0.24 0.24 0.24 0.24 0.26 0.26 0.26 0.26 0.26 0.28 0.28 0.28 0.28 0.28 0.28 0.30 0.30 0.30 0.30 0.28 0.30 0.30 0.30 0.28 0.28 0.30 0.30 0.30 0.30 0.30 0.30 0.30 0.30 0.30 0.30 0.32 0.32 0.32 0.32 0.32 0.32 0.32 0.34 0.34 0.34 0.34 0.36 0.36 0.36 0.36 0.38
0.24 0.22 0.22 0.22 0.20 0.20 0.20 0.18 0.20 0.20 0.20 0.20 0.20 0.18 0.18 0.20 0.20 0.20 0.22 0.22 0.22 0.22 0.20 0.20 0.20 0.20 0.22 0.22 0.22 0.22 0.22 0.22 0.22 0.22 0.24 0.24 0.24 0.24 0.24 0.26 0.26 0.26 0.26 0.26 0.28 0.28 0.28 0.28 0.28 0.28 0.28 0.28 0.28 0.28 0.28 0.28 0.28 0.28 0.28 0.28 0.28 0.28 0.28 0.28 0.28 0.28 0.30 0.30 0.30 0.30 0.30 0.30 0.32 0.32 0.32 0.32 0.34 0.34 0.36 0.36 0.36 0.36 0.36 0.36 0.38 0.38
0.24 0.22 0.20 0.20 0.20 0.18 0.18 0.18 0.20 0.20 0.22 0.22 0.20 0.20 0.20 0.20 0.20 0.18 0.18 0.18 0.20 0.20 0.20 0.20 0.20 0.20 0.20 0.22 0.22 0.22 0.22 0.22 0.24 0.24 0.24 0.24 0.24 0.24 0.24 0.26 0.26 0.26 0.26 0.26 0.26 0.26 0.28 0.28 0.28 0.28 0.28 0.28 0.28 0.26 0.26 0.26 0.26 0.26 0.26 0.26 0.26 0.28 0.26 0.28 0.28 0.28 0.28 0.30 0.30 0.30 0.30 0.30 0.32 0.32 0.32 0.34 0.34 0.34 0.36 0.36 0.36 0.36 0.36 0.36 0.38 0.38
0.22 0.20 0.20 0.20 0.20 0.20 0.18 0.20 0.20 0.22 0.22 0.22 0.20 0.20 0.22 0.22 0.20 0.18 0.16 0.18 0.18 0.20 0.20 0.20 0.20 0.20 0.20 0.20 0.20 0.22 0.22 0.22 0.22 0.22 0.24 0.24 0.24 0.24 0.24 0.26 0.26 0.26 0.26 0.26 0.26 0.26 0.26 0.26 0.26 0.26 0.26 0.26 0.26 0.26 0.26 0.26 0.26 0.26 0.26 0.26 0.26 0.26 0.26 0.26 0.26 0.28 0.28 0.28 0.30 0.30 0.30 0.30 0.32 0.32 0.32 0.34 0.34 0.36 0.36 0.36 0.36 0.36 0.36 0.36 0.38 0.38
0.20 0.20 0.20 0.18 0.20 0.20 0.20 0.20 0.22 0.22 0.20 0.20 0.18 0.18 0.18 0.20 0.20 0.20 0.18 0.18 0.18 0.18 0.18 0.20 0.20 0.20 0.20 0.20 0.20 0.22 0.22 0.22 0.22 0.22 0.22 0.24 0.24 0.24 0.24 0.24 0.26 0.26 0.26 0.26 0.26 0.26 0.26 0.24 0.24 0.26 0.26 0.24 0.24 0.24 0.24 0.24 0.24 0.24 0.24 0.24 0.26 0.26 0.26 0.26 0.26 0.28 0.28 0.28 0.30 0.30 0.30 0.30 0.32 0.32 0.32 0.32 0.34 0.34 0.36 0.36 0.36 0.36 0.36 0.36 0.36 0.38
0.20 0.20 0.20 0.20 0.20 0.20 0.20 0.20 0.18 0.18 0.18 0.18 0.16 0.16 0.18 0.18 0.20 0.20 0.18 0.18 0.18 0.18 0.18 0.20 0.20 0.20 0.20 0.20 0.20 0.22 0.22 0.22 0.22 0.22 0.22 0.22 0.24 0.24 0.24 0.24 0.24 0.24 0.24 0.24 0.24 0.24 0.24 0.24 0.24 0.24 0.24 0.24 0.24 0.24 0.24 0.24 0.24 0.24 0.24 0.24 0.24 0.26 0.26 0.26 0.28 0.28 0.28 0.28 0.30 0.30 0.30 0.30 0.30 0.32 0.32 0.32 0.32 0.34 0.34 0.34 0.36 0.36 0.36 0.36 0.38 0.38
0.20 0.20 0.20 0.20 0.20 0.20 0.18 0.18 0.16 0.16 0.16 0.18 0.18 0.18 0.18 0.20 0.20 0.20 0.18 0.18 0.18 0.18 0.20 0.18 0.18 0.20 0.20 0.20 0.22 0.22 0.22 0.22 0.22 0.22 0.22 0.24 0.24 0.24 0.24 0.24 0.24 0.24 0.24 0.22 0.22 0.22 0.24 0.22 0.22 0.22 0.24 0.22 0.22 0.24 0.24 0.24 0.24 0.24 0.24 0.24 0.26 0.26 0.26 0.28 0.28 0.28 0.28 0.28 0.28 0.30 0.30 0.30 0.30 0.30 0.30 0.32 0.32 0.32 0.34 0.34 0.34 0.34 0.36 0.36 0.36 0.38
0.20 0.20 0.20 0.20 0.20 0.18 0.16 0.16 0.16 0.16 0.16 0.18 0.20 0.20 0.20 0.20 0.20 0.20 0.18 0.18 0.18 0.20 0.18 0.18 0.18 0.20 0.20 0.22 0.22 0.22 0.22 0.22 0.22 0.22 0.22 0.22 0.24 0.24 0.24 0.24 0.22 0.24 0.24 0.22 0.22 0.22 0.22 0.22 0.22 0.22 0.22 0.22 0.22 0.22 0.22 0.24 0.24 0.24 0.26 0.26 0.26 0.26 0.26 0.28 0.28 0.28 0.28 0.28 0.28 0.30 0.30 0.30 0.30 0.30 0.30 0.32 0.32 0.32 0.32 0.34 0.34 0.34 0.34 0.36 0.36 0.36
0.20 0.20 0.20 0.18 0.18 0.18 0.16 0.16 0.16 0.16 0.18 0.20 0.20 0.20 0.20 0.20 0.20 0.20 0.18 0.18 0.18 0.18 0.18 0.18 0.18 0.18 0.20 0.22 0.24 0.24 0.24 0.22 0.22 0.22 0.22 0.22 0.22 0.24 0.24 0.24 0.22 0.22 0.22 0.22 0.22 0.22 0.22 0.22 0.22 0.22 0.22 0.22 0.22 0.24 0.24 0.24 0.24 0.26 0.26 0.26 0.26 0.26 0.26 0.28 0.28 0.28 0.28 0.28 0.28 0.28 0.30 0.30 0.30 0.30 0.30 0.32 0.32 0.32 0.32 0.34 0.34 0.34 0.34 0.36 0.36 0.36
0.20 0.18 0.18 0.16 0.16 0.16 0.16 0.18 0.18 0.18 0.18 0.20 0.20 0.20 0.20 0.20 0.20 0.20 0.20 0.18 0.18 0.18 0.18 0.18 0.18 0.16 0.16 0.18 0.20 0.24 0.24 0.22 0.22 0.22 0.20 0.20 0.22 0.24 0.24 0.22 0.22 0.20 0.22 0.22 0.22 0.22 0.22 0.22 0.22 0.22 0.22 0.22 0.24 0.24 0.24 0.24 0.26 0.26 0.26 0.26 0.26 0.26 0.26 0.28 0.28 0.28 0.28 0.28 0.28 0.28 0.30 0.30 0.30 0.30 0.30 0.32 0.32 0.32 0.32 0.32 0.32 0.34 0.34 0.34 0.34 0.36
0.20 0.18 0.16 0.16 0.16 0.16 0.18 0.18 0.18 0.20 0.20 0.20 0.20 0.20 0.20 0.20 0.20 0.20 0.20 0.20 0.18 0.18 0.18 0.18 0.18 0.18 0.18 0.18 0.20 0.22 0.26 0.24 0.22 0.22 0.22 0.20 0.20 0.22 0.24 0.22 0.22 0.20 0.20 0.20 0.22 0.22 0.22 0.22 0.22 0.22 0.22 0.24 0.24 0.24 0.24 0.24 0.26 0.26 0.26 0.26 0.26 0.26 0.28 0.28 0.28 0.28 0.28 0.28 0.28 0.28 0.30 0.30 0.30 0.30 0.30 0.32 0.32 0.32 0.32 0.32 0.32 0.32 0.32 0.34 0.34 0.34
0.18 0.16 0.16 0.16 0.16 0.16 0.18 0.20 0.20 0.20 0.20 0.20 0.20 0.20 0.20 0.20 0.20 0.20 0.20 0.20 0.20 0.20 0.20 0.20 0.18 0.18 0.20 0.20 0.22 0.24 0.26 0.24 0.22 0.22 0.20 0.20 0.20 0.22 0.22 0.22 0.22 0.22 0.20 0.20 0.22 0.22 0.22 0.22 0.24 0.24 0.24 0.24 0.24 0.24 0.24 0.26 0.26 0.26 0.26 0.26 0.26 0.28 0.28 0.28 0.28 0.28 0.28 0.28 0.28 0.28 0.30 0.30 0.30 0.30 0.30 0.30 0.30 0.32 0.32 0.32 0.32 0.32 0.32 0.32 0.32 0.34
0.16 0.16 0.16 0.16 0.16 0.18 0.18 0.20 0.20 0.20 0.20 0.22 0.22 0.20 0.20 0.20 0.20 0.22 0.22 0.22 0.22 0.22 0.22 0.20 0.20 0.20 0.20 0.20 0.22 0.24 0.26 0.24 0.22 0.20 0.20 0.20 0.20 0.22 0.22 0.22 0.22 0.20 0.20 0.20 0.22 0.22 0.22 0.24 0.24 0.24 0.24 0.24 0.24 0.24 0.24 0.26 0.26 0.26 0.26 0.26 0.28 0.28 0.28 0.28 0.28 0.28 0.30 0.30 0.30 0.30 0.30 0.30 0.30 0.30 0.30 0.30 0.30 0.30 0.32 0.32 0.32 0.32 0.32 0.32 0.34 0.34
0.16 0.18 0.18 0.20 0.20 0.20 0.20 0.20 0.22 0.22 0.22 0.24 0.22 0.22 0.20 0.20 0.22 0.22 0.22 0.22 0.22 0.22 0.22 0.22 0.20 0.20 0.22 0.22 0.22 0.22 0.24 0.24 0.24 0.22 0.20 0.20 0.20 0.22 0.22 0.22 0.22 0.20 0.20 0.22 0.22 0.24 0.24 0.24 0.24 0.24 0.24 0.24 0.24 0.24 0.26 0.26 0.26 0.26 0.26 0.28 0.28 0.28 0.28 0.28 0.28 0.28 0.30 0.30 0.30 0.30 0.30 0.30 0.30 0.30 0.30 0.30 0.30 0.30 0.30 0.32 0.32 0.32 0.32 0.32 0.34 0.34
0.18 0.20 0.22 0.22 0.22 0.22 0.22 0.22 0.24 0.24 0.24 0.24 0.24 0.22 0.22 0.22 0.22 0.22 0.22 0.22 0.22 0.22 0.22 0.22 0.22 0.22 0.24 0.22 0.24 0.24 0.26 0.24 0.24 0.22 0.20 0.20 0.20 0.20 0.22 0.22 0.22 0.22 0.20 0.22 0.22 0.22 0.24 0.24 0.24 0.24 0.24 0.26 0.26 0.26 0.26 0.26 0.26 0.26 0.28 0.28 0.28 0.28 0.28 0.28 0.28 0.30 0.30 0.30 0.30 0.30 0.30 0.30 0.30 0.30 0.30 0.30 0.30 0.30 0.30 0.30 0.32 0.32 0.32 0.32 0.32 0.32
0.20 0.22 0.22 0.22 0.24 0.24 0.24 0.24 0.24 0.24 0.24 0.26 0.26 0.24 0.24 0.24 0.24 0.24 0.24 0.24 0.24 0.24 0.22 0.22 0.22 0.24 0.24 0.24 0.24 0.24 0.26 0.26 0.24 0.22 0.22 0.20 0.20 0.20 0.22 0.22 0.22 0.22 0.22 0.22 0.24 0.24 0.24 0.24 0.24 0.24 0.24 0.26 0.26 0.26 0.26 0.26 0.26 0.26 0.28 0.28 0.28 0.28 0.28 0.28 0.28 0.28 0.28 0.28 0.28 0.30 0.30 0.30 0.30 0.30 0.30 0.30 0.30 0.30 0.30 0.30 0.30 0.30 0.32 0.32 0.32 0.32
0.22 0.24 0.24 0.24 0.24 0.24 0.26 0.26 0.26 0.26 0.26 0.28 0.28 0.28 0.28 0.26 0.26 0.26 0.26 0.26 0.24 0.24 0.24 0.24 0.24 0.24 0.22 0.22 0.24 0.24 0.24 0.26 0.26 0.24 0.24 0.20 0.20 0.20 0.22 0.22 0.22 0.22 0.22 0.24 0.24 0.24 0.24 0.24 0.24 0.24 0.26 0.26 0.26 0.26 0.26 0.26 0.26 0.28 0.28 0.28 0.28 0.28 0.28 0.28 0.28 0.28 0.28 0.28 0.28 0.28 0.28 0.28 0.28 0.30 0.28 0.30 0.30 0.30 0.30 0.30 0.30 0.30 0.30 0.30 0.30 0.32
0.24 0.24 0.26 0.26 0.26 0.26 0.28 0.28 0.28 0.28 0.30 0.30 0.30 0.28 0.28 0.28 0.26 0.26 0.26 0.24 0.24 0.24 0.22 0.22 0.22 0.22 0.20 0.22 0.22 0.22 0.24 0.26 0.26 0.24 0.22 0.22 0.20 0.20 0.22 0.24 0.22 0.22 0.22 0.22 0.24 0.24 0.24 0.24 0.24 0.26 0.26 0.26 0.26 0.26 0.26 0.26 0.26 0.28 0.28 0.28 0.28 0.28 0.28 0.28 0.28 0.28 0.28 0.28 0.28 0.28 0.28 0.28 0.28 0.28 0.28 0.28 0.28 0.28 0.30 0.30 0.30 0.30 0.30 0.30 0.30 0.30
0.26 0.26 0.28 0.28 0.28 0.28 0.30 0.30 0.30 0.30 0.30 0.28 0.26 0.26 0.26 0.26 0.26 0.24 0.24 0.24 0.24 0.22 0.22 0.20 0.20 0.20 0.20 0.22 0.22 0.22 0.24 0.26 0.26 0.24 0.22 0.22 0.22 0.22 0.22 0.24 0.24 0.22 0.22 0.22 0.24 0.24 0.24 0.24 0.24 0.24 0.24 0.26 0.26 0.26 0.26 0.26 0.26 0.26 0.26 0.26 0.26 0.28 0.28 0.28 0.28 0.28 0.28 0.28 0.28 0.28 0.28 0.28 0.28 0.28 0.28 0.28 0.28 0.28 0.28 0.30 0.30 0.30 0.30 0.30 0.30 0.30
0.26 0.28 0.28 0.28 0.28 0.28 0.28 0.28 0.28 0.28 0.28 0.26 0.26 0.26 0.26 0.26 0.24 0.22 0.22 0.22 0.22 0.22 0.22 0.20 0.20 0.20 0.20 0.20 0.20 0.22 0.22 0.24 0.24 0.24 0.24 0.22 0.22 0.22 0.22 0.24 0.24 0.22 0.22 0.22 0.24 0.24 0.24 0.24 0.24 0.24 0.24 0.26 0.26 0.26 0.26 0.26 0.26 0.26 0.26 0.26 0.26 0.26 0.26 0.26 0.28 0.28 0.28 0.28 0.28 0.28 0.28 0.28 0.28 0.28 0.28 0.28 0.28 0.28 0.28 0.30 0.30 0.30 0.30 0.30 0.30 0.30
0.28 0.28 0.28 0.28 0.26 0.26 0.26 0.26 0.26 0.26 0.26 0.26 0.26 0.26 0.26 0.26 0.24 0.22 0.22 0.22 0.22 0.22 0.20 0.20 0.20 0.20 0.20 0.20 0.20 0.22 0.22 0.24 0.24 0.24 0.26 0.24 0.22 0.22 0.22 0.22 0.24 0.24 0.22 0.22 0.22 0.24 0.24 0.24 0.24 0.24 0.24 0.24 0.24 0.26 0.26 0.26 0.26 0.26 0.26 0.26 0.26 0.26 0.26 0.26 0.26 0.28 0.28 0.28 0.28 0.28 0.28 0.28 0.28 0.28 0.28 0.28 0.28 0.28 0.30 0.30 0.30 0.30 0.30 0.30 0.30 0.30
0.26 0.26 0.26 0.26 0.26 0.24 0.24 0.24 0.24 0.24 0.26 0.26 0.26 0.26 0.26 0.26 0.24 0.24 0.24 0.24 0.24 0.22 0.20 0.20 0.20 0.20 0.20 0.20 0.20 0.22 0.22 0.22 0.24 0.26 0.26 0.24 0.22 0.22 0.22 0.24 0.24 0.24 0.22 0.22 0.22 0.22 0.22 0.22 0.22 0.24 0.24 0.24 0.24 0.24 0.26 0.26 0.26 0.26 0.26 0.26 0.26 0.26 0.26 0.26 0.26 0.26 0.28 0.28 0.28 0.28 0.28 0.28 0.28 0.28 0.28 0.28 0.28 0.30 0.30 0.30 0.30 0.30 0.30 0.30 0.30 0.28
0.24 0.24 0.24 0.24 0.24 0.24 0.24 0.24 0.24 0.24 0.26 0.26 0.26 0.26 0.28 0.26 0.26 0.24 0.24 0.24 0.24 0.22 0.22 0.22 0.20 0.20 0.20 0.20 0.20 0.20 0.20 0.22 0.24 0.26 0.26 0.24 0.22 0.22 0.22 0.22 0.24 0.24 0.24 0.22 0.22 0.20 0.20 0.22 0.22 0.24 0.24 0.24 0.24 0.24 0.24 0.26 0.26 0.26 0.26 0.26 0.26 0.26 0.26 0.26 0.26 0.26 0.26 0.26 0.26 0.28 0.28 0.28 0.28 0.28 0.28 0.28 0.28 0.28 0.28 0.30 0.30 0.30 0.30 0.28 0.28 0.28
0.22 0.22 0.22 0.22 0.24 0.24 0.24 0.24 0.24 0.24 0.26 0.26 0.26 0.26 0.26 0.26 0.26 0.26 0.26 0.24 0.24 0.24 0.22 0.22 0.22 0.22 0.22 0.20 0.18 0.18 0.18 0.20 0.24 0.26 0.26 0.24 0.24 0.22 0.22 0.22 0.22 0.24 0.24 0.24 0.22 0.20 0.18 0.20 0.20 0.22 0.24 0.24 0.24 0.24 0.24 0.24 0.26 0.26 0.26 0.26 0.26 0.26 0.26 0.26 0.26 0.26 0.26 0.26 0.26 0.26 0.28 0.28 0.28 0.28 0.28 0.28 0.28 0.28 0.28 0.30 0.30 0.30 0.30 0.28 0.28 0.28
0.22 0.22 0.22 0.22 0.22 0.24 0.24 0.24 0.24 0.24 0.26 0.26 0.26 0.26 0.26 0.26 0.26 0.26 0.26 0.26 0.26 0.24 0.22 0.22 0.22 0.22 0.22 0.20 0.20 0.18 0.20 0.22 0.26 0.26 0.26 0.24 0.24 0.24 0.24 0.24 0.22 0.24 0.24 0.24 0.22 0.20 0.18 0.18 0.20 0.20 0.22 0.22 0.24 0.24 0.24 0.24 0.24 0.26 0.26 0.24 0.24 0.24 0.26 0.26 0.26 0.26 0.26 0.26 0.26 0.26 0.26 0.28 0.28 0.28 0.28 0.28 0.28 0.28 0.28 0.30 0.30 0.30 0.28 0.28 0.28 0.28
0.22 0.22 0.22 0.22 0.22 0.24 0.24 0.24 0.24 0.24 0.24 0.26 0.26 0.26 0.26 0.26 0.26 0.26 0.26 0.26 0.26 0.26 0.24 0.24 0.22 0.22 0.22 0.22 0.20 0.20 0.22 0.24 0.26 0.26 0.28 0.26 0.24 0.24 0.24 0.24 0.22 0.22 0.24 0.24 0.22 0.20 0.20 0.20 0.20 0.20 0.22 0.22 0.22 0.24 0.24 0.24 0.24 0.24 0.24 0.24 0.24 0.24 0.24 0.26 0.26 0.26 0.26 0.26 0.26 0.26 0.26 0.26 0.28 0.28 0.28 0.28 0.28 0.28 0.28 0.30 0.30 0.30 0.30 0.28 0.28 0.28
0.22 0.22 0.22 0.22 0.22 0.24 0.24 0.24 0.24 0.24 0.24 0.24 0.26 0.26 0.26 0.26 0.26 0.26 0.26 0.26 0.26 0.26 0.26 0.24 0.24 0.22 0.22 0.22 0.22 0.22 0.22 0.24 0.26 0.28 0.28 0.26 0.26 0.24 0.24 0.24 0.22 0.22 0.22 0.22 0.22 0.22 0.20 0.20 0.20 0.20 0.20 0.22 0.22 0.22 0.24 0.24 0.24 0.24 0.24 0.24 0.24 0.24 0.24 0.24 0.24 0.24 0.24 0.26 0.26 0.26 0.26 0.26 0.28 0.28 0.28 0.28 0.28 0.28 0.28 0.28 0.30 0.30 0.30 0.30 0.28 0.28
0.22 0.22 0.22 0.22 0.22 0.24 0.24 0.24 0.24 0.24 0.24 0.24 0.24 0.26 0.26 0.26 0.26 0.26 0.26 0.26 0.26 0.26 0.26 0.26 0.24 0.24 0.24 0.22 0.22 0.22 0.24 0.24 0.26 0.28 0.28 0.26 0.26 0.24 0.24 0.24 0.22 0.22 0.22 0.22 0.20 0.20 0.20 0.20 0.20 0.20 0.20 0.20 0.20 0.22 0.22 0.24 0.24 0.24 0.24 0.24 0.24 0.24 0.24 0.24 0.24 0.24 0.24 0.26 0.26 0.26 0.26 0.28 0.28 0.28 0.28 0.28 0.28 0.28 0.28 0.30 0.30 0.30 0.30 0.30 0.30 0.30
0.20 0.22 0.22 0.22 0.22 0.22 0.24 0.24 0.24 0.24 0.24 0.24 0.24 0.24 0.26 0.26 0.26 0.26 0.26 0.26 0.28 0.28 0.28 0.28 0.26 0.26 0.28 0.26 0.24 0.24 0.26 0.26 0.28 0.28 0.28 0.28 0.26 0.24 0.22 0.24 0.24 0.22 0.22 0.22 0.20 0.20 0.20 0.20 0.20 0.20 0.20 0.20 0.20 0.20 0.20 0.22 0.22 0.24 0.24 0.24 0.24 0.24 0.24 0.24 0.26 0.26 0.26 0.26 0.26 0.26 0.26 0.28 0.28 0.28 0.28 0.28 0.28 0.28 0.30 0.30 0.30 0.30 0.30 0.30 0.32 0.32
0.20 0.22 0.22 0.22 0.22 0.24 0.24 0.24 0.24 0.24 0.24 0.24 0.24 0.26 0.26 0.26 0.26 0.26 0.28 0.28 0.28 0.28 0.28 0.28 0.28 0.28 0.28 0.28 0.28 0.26 0.28 0.28 0.28 0.28 0.28 0.28 0.28 0.26 0.24 0.24 0.24 0.24 0.24 0.22 0.22 0.22 0.20 0.20 0.20 0.20 0.20 0.20 0.18 0.18 0.20 0.22 0.22 0.22 0.22 0.24 0.24 0.24 0.24 0.26 0.26 0.26 0.26 0.26 0.26 0.26 0.26 0.28 0.28 0.28 0.28 0.28 0.30 0.30 0.30 0.30 0.30 0.30 0.30 0.30 0.32 0.32
0.22 0.22 0.22 0.22 0.24 0.24 0.24 0.24 0.24 0.24 0.24 0.24 0.24 0.26 0.26 0.26 0.28 0.28 0.28 0.28 0.28 0.28 0.28 0.28 0.28 0.28 0.28 0.28 0.28 0.28 0.28 0.28 0.28 0.28 0.28 0.28 0.28 0.26 0.24 0.24 0.24 0.24 0.24 0.24 0.22 0.22 0.20 0.20 0.18 0.18 0.18 0.18 0.20 0.20 0.20 0.20 0.22 0.22 0.22 0.24 0.24 0.24 0.24 0.26 0.26 0.26 0.26 0.26 0.26 0.26 0.28 0.28 0.28 0.28 0.28 0.28 0.28 0.28 0.28 0.28 0.30 0.30 0.30 0.30 0.30 0.32
0.22 0.22 0.22 0.22 0.24 0.24 0.24 0.24 0.24 0.24 0.26 0.26 0.26 0.26 0.26 0.28 0.28 0.28 0.28 0.28 0.28 0.28 0.28 0.28 0.28 0.28 0.28 0.28 0.28 0.28 0.28 0.28 0.28 0.28 0.28 0.28 0.28 0.26 0.24 0.24 0.24 0.24 0.26 0.24 0.24 0.22 0.20 0.20 0.18 0.18 0.18 0.18 0.18 0.20 0.20 0.20 0.22 0.22 0.22 0.22 0.22 0.24 0.24 0.26 0.26 0.26 0.26 0.28 0.28 0.28 0.28 0.28 0.28 0.28 0.28 0.28 0.28 0.28 0.28 0.28 0.30 0.30 0.30 0.30 0.30 0.32
0.22 0.22 0.22 0.24 0.24 0.24 0.24 0.24 0.24 0.24 0.26 0.26 0.26 0.28 0.28 0.28 0.28 0.28 0.28 0.28 0.28 0.30 0.30 0.30 0.30 0.30 0.30 0.30 0.30 0.30 0.28 0.28 0.28 0.28 0.28 0.28 0.28 0.28 0.26 0.26 0.26 0.24 0.24 0.24 0.24 0.24 0.22 0.22 0.20 0.20 0.20 0.20 0.20 0.20 0.20 0.20 0.22 0.22 0.22 0.22 0.22 0.22 0.24 0.26 0.26 0.28 0.28 0.28 0.28 0.28 0.28 0.28 0.28 0.28 0.28 0.28 0.28 0.28 0.30 0.30 0.30 0.30 0.30 0.30 0.30 0.30
0.22 0.22 0.22 0.24 0.24 0.24 0.24 0.24 0.24 0.26 0.26 0.26 0.28 0.28 0.28 0.28 0.28 0.28 0.28 0.28 0.28 0.30 0.30 0.30 0.30 0.30 0.28 0.30 0.30 0.30 0.30 0.28 0.28 0.28 0.28 0.28 0.28 0.28 0.26 0.26 0.26 0.26 0.24 0.24 0.24 0.24 0.24 0.22 0.22 0.22 0.22 0.20 0.22 0.22 0.22 0.22 0.22 0.24 0.22 0.22 0.22 0.24 0.26 0.26 0.28 0.28 0.28 0.30 0.30 0.30 0.28 0.30 0.30 0.30 0.30 0.30 0.30 0.30 0.30 0.30 0.30 0.30 0.30 0.30 0.30 0.30
0.22 0.22 0.24 0.24 0.24 0.24 0.24 0.26 0.26 0.26 0.26 0.26 0.26 0.26 0.26 0.28 0.28 0.28 0.28 0.28 0.28 0.28 0.30 0.28 0.28 0.28 0.28 0.28 0.28 0.30 0.30 0.28 0.28 0.28 0.28 0.28 0.28 0.28 0.28 0.28 0.26 0.26 0.26 0.24 0.24 0.24 0.24 0.24 0.24 0.24 0.24 0.24 0.24 0.24 0.22 0.22 0.24 0.26 0.26 0.24 0.26 0.26 0.26 0.28 0.28 0.30 0.30 0.30 0.30 0.30 0.30 0.30 0.30 0.30 0.30 0.30 0.32 0.32 0.32 0.32 0.32 0.32 0.32 0.32 0.32 0.32
0.24 0.24 0.24 0.24 0.24 0.24 0.24 0.26 0.26 0.26 0.26 0.26 0.26 0.26 0.28 0.28 0.28 0.28 0.28 0.28 0.28 0.28 0.28 0.28 0.28 0.28 0.28 0.26 0.26 0.28 0.28 0.28 0.28 0.30 0.30 0.30 0.30 0.28 0.28 0.28 0.28 0.28 0.28 0.26 0.26 0.26 0.26 0.26 0.26 0.26 0.26 0.26 0.26 0.26 0.24 0.24 0.26 0.26 0.28 0.26 0.28 0.26 0.26 0.28 0.28 0.30 0.30 0.30 0.30 0.30 0.30 0.30 0.32 0.32 0.32 0.32 0.32 0.32 0.32 0.32 0.32 0.32 0.32 0.32 0.32 0.32
0.24 0.24 0.24 0.24 0.24 0.24 0.24 0.24 0.24 0.24 0.26 0.26 0.26 0.26 0.28 0.28 0.28 0.28 0.28 0.28 0.28 0.28 0.28 0.28 0.28 0.28 0.26 0.26 0.26 0.26 0.28 0.28 0.28 0.30 0.30 0.30 0.30 0.30 0.30 0.30 0.30 0.30 0.30 0.28 0.26 0.26 0.26 0.26 0.28 0.28 0.28 0.28 0.26 0.26 0.26 0.26 0.26 0.28 0.28 0.28 0.28 0.28 0.28 0.26 0.28 0.30 0.30 0.30 0.32 0.32 0.32 0.32 0.32 0.32 0.32 0.32 0.32 0.32 0.32 0.32 0.32 0.32 0.34 0.34 0.32 0.32
0.24 0.24 0.24 0.24 0.24 0.24 0.24 0.24 0.24 0.24 0.26 0.26 0.26 0.28 0.28 0.28 0.30 0.28 0.28 0.28 0.28 0.28 0.28 0.28 0.28 0.28 0.26 0.26 0.26 0.26 0.26 0.28 0.28 0.28 0.30 0.30 0.30 0.30 0.30 0.30 0.30 0.30 0.30 0.28 0.28 0.28 0.28 0.26 0.28 0.28 0.28 0.28 0.28 0.28 0.28 0.26 0.28 0.28 0.28 0.28 0.30 0.30 0.30 0.30 0.30 0.30 0.30 0.30 0.32 0.32 0.32 0.32 0.32 0.32 0.32 0.32 0.32 0.32 0.32 0.32 0.32 0.32 0.32 0.34 0.34 0.34
0.24 0.24 0.24 0.24 0.24 0.24 0.24 0.24 0.24 0.26 0.26 0.26 0.26 0.28 0.28 0.28 0.30 0.30 0.28 0.28 0.28 0.28 0.28 0.28 0.28 0.26 0.26 0.26 0.26 0.26 0.26 0.26 0.28 0.28 0.28 0.28 0.30 0.30 0.32 0.32 0.32 0.32 0.32 0.32 0.32 0.32 0.30 0.28 0.28 0.30 0.28 0.28 0.28 0.28 0.28 0.28 0.28 0.28 0.28 0.30 0.30 0.30 0.30 0.30 0.30 0.30 0.30 0.30 0.32 0.32 0.32 0.32 0.32 0.32 0.30 0.30 0.30 0.32 0.32 0.32 0.32 0.32 0.32 0.34 0.34 0.34
0.24 0.24 0.24 0.24 0.24 0.24 0.24 0.24 0.24 0.24 0.26 0.26 0.26 0.28 0.28 0.28 0.30 0.30 0.30 0.30 0.30 0.30 0.28 0.28 0.28 0.28 0.26 0.26 0.26 0.26 0.26 0.26 0.26 0.26 0.28 0.28 0.30 0.30 0.32 0.32 0.32 0.32 0.32 0.32 0.32 0.32 0.32 0.32 0.30 0.30 0.30 0.28 0.28 0.28 0.28 0.28 0.28 0.28 0.30 0.30 0.30 0.30 0.30 0.30 0.30 0.32 0.32 0.32 0.32 0.32 0.32 0.32 0.32 0.30 0.30 0.30 0.32 0.32 0.32 0.34 0.34 0.34 0.34 0.34 0.34 0.34
0.24 0.24 0.24 0.24 0.24 0.22 0.22 0.24 0.24 0.24 0.24 0.26 0.26 0.26 0.28 0.28 0.30 0.30 0.30 0.30 0.30 0.30 0.28 0.28 0.28 0.26 0.26 0.26 0.26 0.26 0.26 0.26 0.26 0.28 0.28 0.28 0.30 0.30 0.32 0.32 0.32 0.32 0.34 0.32 0.32 0.32 0.32 0.32 0.32 0.32 0.32 0.30 0.28 0.28 0.28 0.28 0.30 0.30 0.30 0.30 0.30 0.30 0.30 0.30 0.30 0.32 0.32 0.32 0.32 0.32 0.32 0.32 0.32 0.32 0.30 0.30 0.30 0.30 0.32 0.32 0.34 0.34 0.36 0.36 0.36 0.36
0.24 0.24 0.24 0.24 0.24 0.24 0.22 0.24 0.24 0.24 0.24 0.26 0.26 0.26 0.28 0.28 0.30 0.30 0.30 0.30 0.30 0.28 0.28 0.28 0.28 0.26 0.26 0.26 0.28 0.28 0.28 0.28 0.28 0.28 0.28 0.30 0.30 0.30 0.30 0.30 0.32 0.32 0.32 0.32 0.32 0.32 0.32 0.34 0.34 0.34 0.32 0.32 0.30 0.30 0.28 0.30 0.30 0.30 0.30 0.30 0.30 0.30 0.30 0.30 0.30 0.32 0.32 0.32 0.32 0.34 0.34 0.34 0.34 0.34 0.32 0.32 0.30 0.30 0.32 0.32 0.34 0.34 0.34 0.36 0.36 0.36
0.24 0.24 0.24 0.24 0.24 0.24 0.24 0.24 0.24 0.24 0.24 0.26 0.26 0.26 0.28 0.28 0.28 0.30 0.30 0.30 0.28 0.28 0.28 0.28 0.28 0.26 0.26 0.26 0.28 0.28 0.28 0.28 0.28 0.28 0.28 0.30 0.30 0.30 0.30 0.30 0.30 0.30 0.30 0.32 0.30 0.30 0.30 0.32 0.32 0.32 0.32 0.32 0.32 0.30 0.30 0.30 0.30 0.30 0.30 0.30 0.30 0.30 0.30 0.30 0.30 0.32 0.32 0.32 0.34 0.34 0.34 0.34 0.34 0.34 0.34 0.32 0.30 0.30 0.32 0.32 0.32 0.32 0.34 0.34 0.36 0.36
0.24 0.24 0.24 0.24 0.24 0.24 0.24 0.24 0.24 0.24 0.26 0.26 0.26 0.26 0.26 0.28 0.28 0.28 0.28 0.28 0.28 0.28 0.28 0.28 0.28 0.28 0.28 0.28 0.28 0.28 0.28 0.28 0.28 0.28 0.28 0.30 0.30 0.30 0.30 0.30 0.30 0.30 0.30 0.30 0.28 0.28 0.28 0.28 0.28 0.28 0.28 0.32 0.34 0.34 0.32 0.30 0.30 0.30 0.30 0.30 0.30 0.32 0.30 0.30 0.32 0.32 0.32 0.34 0.34 0.34 0.34 0.34 0.34 0.34 0.34 0.32 0.32 0.30 0.30 0.30 0.32 0.32 0.34 0.34 0.34 0.34
Wind_Speed
43 44 44 45 45 46 46 46 46 46 47 47 47 47 47 47 48 48 48 48 48 48 48 48 48 48 48 49 49 49 49 50 50 50 50 50 50 50 51 51 51 51 52 52 52 52 52 53 53 53 53 53 53 53 54 54 54 54 54 54 54 54 54 54 54 54 54 54 54 54 54 54 54 54 54 54 53 53 53 53 53 53 53 52 52 52
44 44 45 45 45 46 47 47 46 46 46 47 47 47 47 47 48 48 48 48 48 48 48 48 48 48 49 49 49 49 49 50 50 50 50 50 50 50 51 51 51 52 52 52 52 52 53 53 53 53 53 53 53 53 54 54 54 54 54 54 54 54 54 54 53 53 53 53 53 53 53 53 53 52 52 52 52 52 51 51 51 51 51 51 50 50
45 45 45 46 46 46 47 47 47 46 46 47 47 47 47 47 47 47 47 47 48 48 48 48 48 48 49 49 49 49 49 49 50 50 50 50 50 50 51 51 51 52 52 52 52 52 52 53 53 53 53 53 53 53 53 53 53 53 53 53 53 52 52 52 52 52 52 52 52 51 51 51 51 51 50 50 50 50 49 49 49 49 49 48 48 48
45 45 46 46 46 46 46 46 46 46 46 47 47 48 48 47 47 47 47 47 48 48 48 48 48 48 49 49 49 49 49 49 49 50 50 50 50 51 51 51 51 51 52 52 52 52 52 52 52 52 52 52 52 52 52 52 52 51 51 51 51 51 51 50 50 50 50 50 50 49 49 49 49 48 48 48 47 47 47 47 47 46 46 46 46 45
45 46 46 46 46 46 46 46 46 46 47 47 47 47 47 47 47 47 48 48 48 48 48 48 48 48 48 49 49 49 49 49 50 50 50 50 51 51 51 51 51 51 51 51 51 51 51 51 51 51 51 51 51 51 50 50 50 50 49 49 49 49 49 48 48 48 48 48 47 47 47 46 46 45 45 45 45 44 44 44 44 44 43 43 43 43
45 46 46 46 46 46 46 46 46 46 47 47 47 47 47 47 47 47 47 47 47 48 48 48 48 48 49 49 49 49 49 50 50 50 50 50 51 51 51 51 51 51 51 51 50 50 50 50 50 50 50 50 49 49 49 48 48 48 48 47 47 47 47 46 46 46 45 45 45 44 44 43 43 43 42 42 42 42 42 41 41 41 41 41 40 40
46 46 46 46 46 46 46 46 46 46 46 47 47 47 47 47 47 47 47 47 47 47 48 48 49 49 49 49 49 49 49 50 50 50 50 50 50 50 50 50 50 50 50 49 49 49 49 49 49 48 48 48 48 47 47 47 46 46 46 45 45 45 44 44 44 44 43 43 42 42 42 41 41 40 40 40 40 40 40 39 39 39 39 39 39 39
46 46 46 46 46 46 46 46 46 46 46 47 47 48 48 47 47 47 47 47 47 47 48 48 48 48 49 49 49 49 49 50 50 50 49 49 49 49 49 49 48 48 48 48 48 47 47 47 47 47 47 46 46 46 45 45 45 44 44 44 43 43 43 42 42 42 42 41 41 40 40 39 39 39 39 39 39 38 38 38 38 38 38 38 38 38
45 46 46 46 46 46 46 46 46 46 46 47 47 47 48 48 47 47 47 47 47 47 47 48 48 48 49 49 49 49 49 49 49 49 48 48 48 47 47 47 47 47 46 46 46 45 45 45 45 45 45 45 45 44 44 43 43 43 42 42 42 42 41 41 41 41 41 40 40 39 39 39 38 38 38 38 38 38 38 38 38 38 38 38 38 38
45 46 46 46 46 46 46 46 46 46 46 46 47 47 47 47 47 48 48 48 48 48 48 48 48 48 49 49 49 49 49 49 48 48 47 47 46 46 46 45 45 44 44 44 44 44 44 44 44 44 44 44 43 43 42 42 42 41 41 41 41 41 40 40 40 40 40 40 39 39 38 38 38 38 38 38 38 38 38 38 38 38 38 38 38 38
45 46 46 46 46 46 45 45 46 46 46 46 46 46 46 46 47 47 48 49 49 48 48 48 48 48 48 48 48 48 47 47 46 46 45 45 44 44 44 43 43 42 42 42 42 42 43 43 43 43 43 42 42 42 41 41 41 40 40 40 40 40 40 40 40 39 39 39 39 38 38 38 38 38 38 38 38 38 38 38 38 38 38 38 38 38
46 46 46 46 46 45 45 45 46 46 46 46 46 46 46 46 47 47 48 49 49 49 49 48 48 47 47 47 47 46 46 45 44 43 43 42 42 41 41 41 41 41 41 41 41 42 42 42 42 42 42 41 41 41 41 40 40 40 40 40 40 39 39 39 39 39 39 38 38 38 38 38 38 38 38 38 38 38 38 38 38 38 38 38 38 38
46 46 45 45 45 45 45 45 45 46 46 46 46 46 47 47 47 48 48 49 49 49 49 48 48 47 46 45 45 44 43 43 42 41 40 39 39 39 39 39 39 40 40 40 41 41 41 41 41 41 41 41 40 40 40 40 40 40 39 39 39 39 39 39 39 38 38 38 38 38 38 38 38 38 38 38 38 38 38 38 38 38 38 38 37 38
46 45 45 45 44 44 45 45 46 46 46 46 46 46 47 47 48 48 48 48 49 48 48 47 47 46 45 43 42 41 41 40 40 39 38 37 37 37 37 38 38 39 39 39 40 40 40 40 40 40 40 40 40 40 39 39 39 39 39 39 39 38 38 38 38 38 38 38 38 38 38 38 38 38 38 38 38 38 38 38 38 38 37 37 37 37
45 44 44 44 44 44 45 45 46 46 46 46 46 47 47 48 48 48 48 48 48 48 47 46 45 44 42 40 39 39 38 38 38 37 37 37 37 37 37 38 38 39 39 39 39 39 40 39 39 39 39 39 39 39 39 38 38 38 38 38 38 38 38 38 38 38 38 38 38 38 38 38 38 38 38 38 38 38 38 38 38 37 37 37 37 37
44 44 44 44 45 45 45 45 45 46 46 46 46 47 47 48 48 48 47 47 47 46 45 44 43 42 40 38 37 36 36 36 37 37 37 37 37 37 38 37 38 38 38 38 38 39 39 38 38 38 38 38 38 38 38 38 38 38 38 38 38 38 38 38 38 38 38 38 38 38 38 38 38 38 38 38 38 38 38 38 37 37 37 37 36 36
44 44 44 45 45 46 45 45 45 45 46 46 47 47 47 47 47 47 46 46 45 44 43 42 40 39 38 37 36 35 35 35 36 37 37 37 38 38 38 38 38 39 38 38 38 38 37 37 37 37 37 37 37 37 37 37 37 37 38 38 38 38 38 38 38 38 37 37 37 37 37 38 38 38 38 38 38 38 38 37 37 37 37 36 36 36
44 44 45 45 45 45 45 45 45 46 46 46 47 47 47 46 46 46 45 44 43 42 41 40 38 36 35 35 35 36 36 36 37 38 38 38 38 39 38 38 38 38 38 38 37 37 37 37 36 36 36 36 36 36 36 37 37 37 37 37 37 37 37 37 37 37 37 37 37 37 37 37 37 37 38 38 38 37 37 37 37 37 36 36 36 36
44 44 44 45 45 45 45 45 45 46 46 46 46 46 46 46 45 44 43 42 41 40 39 37 37 36 35 35 36 37 38 38 38 39 39 39 39 39 38 38 38 38 38 37 37 37 36 36 36 36 36 36 36 36 36 36 36 36 36 36 37 37 37 37 37 37 37 37 37 37 37 37 37 37 37 37 37 37 37 37 36 36 36 36 36 35
45 44 44 44 44 45 45 45 45 46 46 46 46 46 45 45 44 42 41 40 38 37 37 36 35 35 36 36 37 38 39 39 40 40 40 40 40 39 38 38 38 38 38 37 36 36 36 36 36 36 36 36 36 36 36 36 36 36 36 36 36 36 37 37 37 37 37 37 37 37 37 37 37 37 37 37 37 37 36 36 36 36 36 36 36 36
44 44 44 44 44 44 45 45 45 45 45 45 45 44 44 43 41 40 39 37 36 36 35 35 35 36 37 38 39 40 41 40 40 40 40 40 39 39 38 38 38 38 38 37 37 36 36 36 36 36 35 35 35 35 35 35 35 35 36 36 36 36 36 36 36 36 36 36 36 36 36 36 36 36 36 36 36 36 36 36 36 36 36 36 36 36
43 43 43 43 44 44 45 45 45 45 44 44 43 42 41 40 39 37 36 35 35 35 35 36 37 38 39 40 41 41 41 40 40 40 40 40 40 40 39 38 38 38 38 37 37 36 36 36 36 35 35 36 36 36 35 35 35 35 35 35 35 35 35 35 35 35 35 35 35 35 35 35 35 36 36 36 36 36 36 36 36 36 36 37 37 36
42 43 43 44 44 44 44 45 44 44 43 42 40 39 38 37 36 35 35 35 35 36 37 38 39 40 40 40 41 41 41 40 40 40 40 40 40 40 39 38 38 38 38 38 37 36 36 36 35 35 36 36 36 35 35 35 35 35 35 35 35 34 34 34 34 34 34 34 35 35 35 35 35 35 36 36 36 36 36 36 36 36 36 37 37 36
42 43 43 43 44 44 43 43 42 41 40 39 38 37 36 35 34 35 35 36 37 38 39 40 40 40 40 41 41 41 40 40 40 39 40 40 40 40 39 39 39 39 39 38 37 37 36 35 35 35 35 35 35 35 35 35 35 34 34 34 34 34 34 34 34 34 34 34 34 34 34 34 35 35 35 35 36 36 36 36 36 36 36 36 37 37
42 42 43 43 43 43 42 41 40 39 38 36 35 35 35 35 36 37 37 38 38 39 40 40 40 40 40 40 40 40 40 40 39 39 40 40 41 41 40 39 39 39 39 38 37 37 36 36 35 35 35 35 35 35 35 34 34 34 34 34 34 34 34 34 34 34 34 34 34 34 34 34 34 34 34 35 35 35 35 35 35 35 36 36 36 37
43 43 43 43 43 42 41 40 39 37 36 35 35 35 35 36 36 37 37 38 38 39 39 40 40 40 41 40 40 40 40 39 39 39 39 40 40 40 40 39 39 39 39 38 37 37 36 36 35 35 34 34 34 34 34 34 34 34 34 34 34 34 34 34 34 34 34 34 34 34 34 34 34 34 34 34 34 34 34 34 34 35 35 36 36 37
43 43 43 42 41 40 39 38 37 36 36 35 35 35 35 35 35 36 37 37 38 38 39 39 40 40 41 40 40 40 40 39 39 39 39 39 40 40 39 39 38 38 39 38 37 37 36 36 35 34 34 33 33 34 34 34 34 34 34 34 34 34 34 34 34 34 34 34 34 34 34 34 33 33 33 33 33 33 34 34 34 34 35 35 35 36
42 42 41 40 39 38 37 36 35 35 34 34 35 35 34 34 35 35 36 37 38 38 39 39 40 40 40 40 40 40 39 39 38 38 38 38 38 38 38 38 38 38 38 38 37 36 36 35 34 34 33 32 32 32 33 33 33 33 33 34 34 34 34 35 35 35 34 34 34 34 34 34 33 33 33 33 33 33 33 33 33 34 34 34 34 34
40 40 39 38 36 35 35 34 33 33 33 33 33 34 33 33 34 35 36 37 38 38 39 39 39 39 39 39 39 39 38 37 37 37 36 36 37 37 37 37 37 37 37 37 37 36 34 33 32 32 31 31 31 31 31 32 32 33 33 34 34 34 34 34 34 34 34 34 34 34 34 34 33 33 33 33 33 33 33 33 33 33 33 33 33 33
38 37 36 35 34 33 32 31 31 31 32 32 33 33 33 34 34 35 36 37 37 37 38 38 38 38 38 38 38 37 36 36 35 35 35 35 36 36 37 36 36 36 35 35 35 34 33 32 31 30 30 30 30 30 30 31 32 32 32 33 33 34 34 34 34 34 34 34 34 34 34 34 33 33 33 33 33 32 32 32 32 31 31 31 32 32
36 34 33 32 31 30 29 29 30 30 31 31 32 33 34 34 35 35 36 36 36 36 37 37 37 37 36 36 35 34 34 34 35 34 35 35 35 36 36 36 35 35 34 33 32 32 31 30 30 29 29 29 30 30 30 30 31 31 32 32 32 33 33 34 34 34 34 34 34 34 34 33 33 33 33 32 32 32 31 31 31 30 30 30 31 31
33 31 30 29 28 28 28 28 29 29 30 31 32 33 34 34 35 35 35 35 35 35 35 35 35 35 35 34 33 33 34 35 35 35 35 35 35 35 34 34 34 34 33 32 32 31 30 29 29 29 29 29 29 29 30 30 30 31 31 31 31 32 33 33 33 33 33 33 33 33 33 33 33 32 32 32 31 31 31 30 30 29 29 29 30 30
30 29 27 27 27 27 27 28 28 29 30 31 32 33 33 34 34 34 34 33 33 33 33 34 34 34 34 34 34 34 34 35 35 35 34 34 34 33 33 33 32 32 32 31 31 30 30 29 29 29 29 29 28 28 29 29 30 30 31 31 31 32 32 32 32 32 32 32 32 32 32 32 32 32 32 31 31 30 30 29 29 28 28 28 29 29
27 26 26 26 26 26 27 27 28 29 30 31 32 32 33 33 33 33 33 32 32 32 32 32 32 33 33 33 34 34 34 34 34 34 34 33 32 32 32 31 31 30 30 29 29 28 28 29 29 28 28 28 28 28 28 29 29 30 30 30 31 31 32 31 31 31 31 31 31 31 31 31 31 31 31 31 30 30 29 29 28 28 27 27 28 28
25 24 25 25 25 26 27 27 29 30 30 31 32 32 32 32 32 32 32 32 31 31 31 31 31 32 32 33 33 34 34 34 34 34 33 32 31 31 30 29 29 28 28 27 27 27 26 27 27 27 27 28 28 28 28 28 29 29 30 30 30 30 31 30 30 30 30 30 30 30 29 29 29 30 30 30 30 29 29 28 28 27 27 27 28 28
23 24 24 25 25 26 27 28 29 30 30 31 31 31 31 31 30 31 31 31 31 31 31 31 31 32 32 32 33 33 34 34 33 33 32 31 30 29 28 28 27 27 27 26 26 26 25 26 26 27 27 27 27 28 28 28 28 29 29 30 30 30 29 29 29 29 29 29 29 29 29 29 29 29 29 29 30 29 29 28 28 27 27 27 28 28
23 23 24 24 25 26 27 28 29 30 30 30 30 30 30 30 30 30 30 30 30 31 31 31 32 32 32 32 33 33 33 33 33 32 31 30 29 28 27 27 26 26 26 25 25 25 25 26 26 26 26 26 26 27 27 28 28 28 29 29 29 28 28 28 28 28 28 29 29 29 29 29 29 29 29 29 29 29 28 28 27 27 27 27 27 28
22 23 24 24 25 26 27 28 29 29 30 30 29 29 29 29 29 29 30 30 30 30 30 31 31 32 32 33 33 33 33 33 33 32 31 30 28 27 27 26 26 25 25 25 25 25 26 25 25 25 25 26 26 27 28 28 28 28 28 28 27 27 27 27 27 27 28 28 29 29 29 29 29 29 28 28 28 27 27 26 25 25 25 26 26 27
22 23 23 24 25 26 27 28 29 29 29 29 28 28 28 28 29 29 29 29 30 30 30 30 31 31 32 32 33 33 33 33 32 31 30 29 28 27 26 26 25 25 25 25 25 25 26 26 26 25 25 26 26 27 27 27 27 27 27 27 26 26 26 26 27 27 28 28 29 29 29 29 28 28 28 27 27 26 25 24 24 24 24 24 24 25
22 23 23 24 25 26 27 28 28 28 28 28 28 28 28 28 28 28 28 29 29 30 30 30 31 31 31 32 32 32 32 32 31 31 30 29 28 26 26 25 25 25 25 24 25 25 25 26 26 26 26 26 26 26 26 26 26 26 26 25 25 25 26 26 27 27 28 28 28 28 28 28 27 27 27 26 25 25 24 23 23 23 23 23 23 24
22 22 23 24 25 26 27 27 28 28 28 27 27 27 27 27 27 27 28 28 29 29 29 30 30 30 31 31 31 31 31 31 30 29 29 28 27 26 25 25 25 24 24 24 24 24 25 25 25 25 25 25 25 25 25 25 25 25 25 25 25 25 26 26 27 27 27 27 27 27 27 26 26 25 25 24 24 23 23 23 23 23 23 23 23 23
22 22 23 24 25 26 27 27 27 27 27 26 26 26 26 26 27 27 28 28 28 29 29 29 30 30 30 30 30 30 30 29 29 28 28 27 26 26 25 24 24 24 24 24 24 24 24 24 24 24 24 24 24 24 24 24 24 25 25 25 25 26 26 26 26 25 26 25 25 25 25 24 24 24 23 23 23 22 22 22 22 22 22 22 22 22
21 22 23 24 25 26 26 27 27 26 26 26 25 25 25 26 26 27 28 28 29 29 29 29 29 30 30 30 29 29 28 28 28 27 26 26 25 25 25 24 24 24 24 24 24 24 24 24 24 24 24 24 23 23 23 24 24 25 25 25 25 25 24 25 25 25 25 25 24 24 24 23 23 23 23 22 22 22 22 22 22 22 22 22 22 22
21 22 23 24 25 25 26 26 26 26 25 25 25 25 25 26 26 27 27 28 28 29 29 29 29 29 29 29 29 29 28 27 27 26 26 25 25 25 25 24 24 24 24 24 24 24 24 24 24 24 23 23 23 24 24 24 24 24 25 25 25 25 24 25 25 25 25 25 24 24 23 23 23 23 22 22 22 22 21 21 21 21 21 21 21 21
22 22 23 24 25 25 26 26 26 25 25 25 25 25 25 26 26 27 27 28 28 29 29 29 29 28 28 28 28 28 28 27 26 26 25 25 25 25 25 25 25 25 25 24 24 24 24 24 24 24 23 23 23 23 24 24 24 24 24 24 24 25 25 25 25 25 25 24 24 24 23 23 22 22 22 22 21 21 21 21 21 21 20 20 20 20
21 22 23 24 24 25 25 25 25 25 25 24 24 25 25 26 26 27 27 28 28 29 29 28 28 28 28 28 28 28 27 27 27 26 26 25 25 25 25 25 25 25 25 25 25 25 24 24 24 24 23 23 23 23 23 23 23 23 23 24 24 24 24 24 24 23 23 23 23 23 23 22 21 21 21 21 21 21 20 20 20 19 19 19 19 19
21 22 23 24 24 25 25 25 25 25 24 24 24 25 25 26 26 26 27 27 28 28 28 28 28 27 27 27 27 27 27 27 27 27 26 26 26 26 26 26 26 26 26 25 25 25 25 25 24 23 23 22 22 22 23 23 23 23 23 23 23 23 23 23 23 23 22 22 22 22 22 21 21 20 20 20 20 20 20 19 19 18 18 18 18 18
21 22 23 24 24 25 25 25 25 25 24 24 24 25 25 26 26 27 27 27 28 28 28 28 28 27 27 27 27 27 26 26 26 27 27 26 26 26 26 26 26 26 26 26 26 26 26 26 25 24 23 22 22 22 22 22 22 22 23 23 22 22 22 23 23 22 22 22 22 22 21 21 20 20 20 20 19 19 19 18 18 17 17 17 18 18
21 22 23 23 24 24 25 25 25 25 25 25 25 25 25 26 26 27 27 27 27 27 28 28 27 27 27 27 27 27 26 26 26 26 26 26 26 26 26 26 26 26 25 26 26 26 26 26 26 25 24 23 22 22 22 23 22 23 23 23 22 22 23 23 23 23 23 23 23 23 22 21 21 20 20 19 19 19 19 19 18 18 18 18 18 19
21 22 23 23 24 24 25 25 25 25 25 25 25 25 25 26 26 27 27 27 27 27 27 27 27 27 27 27 27 27 26 26 26 26 26 26 26 26 26 26 26 26 25 25 25 25 25 25 25 25 25 24 23 23 23 23 23 23 23 22 23 23 23 23 24 24 24 24 24 24 23 22 22 21 20 20 20 20 21 20 20 20 19 19 19 20
21 22 23 23 24 24 24 25 25 25 25 25 25 25 25 26 26 27 27 27 27 27 27 27 27 27 27 27 27 27 26 26 26 26 26 26 26 26 26 26 26 25 25 24 24 24 24 23 23 24 25 25 25 24 24 24 23 23 23 22 23 23 23 24 24 25 25 25 25 25 24 24 23 22 22 21 21 21 22 22 21 21 20 20 20 21
Wind_Direction
301 301 302 302 302 302 302 302 302 302 302 302 302 302 302 301 301 301 300 300 300 299 299 299 298 298 298 298 297 297 297 297 296 296 295 295 294 294 293 293 292 292 292 291 291 291 290 290 290 289 289 289 288 288 287 287 286 286 285 285 284 284 284 283 283 282 282 281 281 280 280 280 279 279 278 278 277 277 276 275 275 274 273 273 272 272
301 301 302 302 302 302 302 302 302 302 302 302 302 302 302 302 301 301 301 300 300 300 299 299 299 299 298 298 298 298 297 297 297 296 296 295 295 294 294 293 293 293 292 292 291 291 291 290 290 290 289 289 288 288 287 287 287 286 286 285 285 284 284 283 283 282 282 281 281 280 280 280 279 279 278 278 277 276 276 275 274 273 273 272 271 271
301 302 302 302 302 302 302 303 303 302 302 302 302 302 302 302 302 301 301 301 300 300 300 299 299 299 299 299 299 298 298 298 297 297 297 296 295 295 294 294 293 293 293 292 292 291 291 291 290 290 289 289 289 288 288 287 287 286 286 285 285 284 284 283 283 282 282 281 281 280 280 279 279 278 278 277 276 276 275 274 274 273 272 271 271 270
301 302 302 302 303 302 302 303 303 303 302 302 302 302 302 302 302 301 301 301 301 300 300 300 300 300 300 299 299 299 299 298 298 297 297 296 296 295 295 294 294 293 293 293 292 292 291 291 291 290 290 289 289 288 288 288 287 287 286 286 285 284 284 283 283 282 282 281 281 280 280 279 278 278 277 276 276 275 274 273 273 272 271 270 270 269
301 302 302 303 303 303 303 303 303 303 303 302 302 303 302 302 302 302 301 301 301 301 301 301 300 300 300 300 300 299 299 298 298 298 297 297 296 296 295 295 294 294 294 293 293 292 292 292 291 291 290 290 289 289 289 288 288 287 286 286 285 285 284 283 283 282 282 281 280 280 279 279 278 277 277 276 275 274 274 273 272 271 270 269 269 268
302 302 303 303 303 303 303 303 303 303 303 303 303 303 303 302 302 302 302 302 301 301 301 301 301 301 300 300 300 299 299 299 298 298 297 297 296 296 296 295 295 294 294 294 293 293 292 292 292 291 291 290 290 290 289 289 288 288 287 286 286 285 284 284 283 282 282 281 280 279 279 278 278 277 276 276 275 274 273 272 271 270 270 269 268 268
302 302 303 303 303 303 303 303 303 303 303 303 303 303 303 302 302 302 302 302 302 302 302 301 301 301 301 300 300 300 299 299 299 298 298 297 297 297 296 296 295 295 294 294 294 293 293 292 292 291 291 291 290 290 290 289 289 288 287 287 286 285 285 284 283 282 282 281 280 279 279 278 277 277 276 275 275 274 273 272 271 270 270 269 269 268
302 303 303 303 303 303 303 303 303 303 303 303 303 303 303 303 302 302 302 302 302 302 302 302 302 302 301 301 301 300 300 300 299 299 298 298 297 297 296 296 295 295 294 294 294 293 293 293 292 292 292 291 291 291 290 290 289 288 288 287 286 285 284 284 283 282 281 281 280 279 279 278 277 277 276 275 274 274 273 272 272 271 270 270 269 269
302 303 303 303 303 303 303 303 303 303 303 303 303 303 303 303 303 302 302 302 302 303 303 303 303 302 302 302 301 301 301 300 300 299 299 298 297 297 296 296 295 295 295 294 294 294 293 293 293 292 292 292 291 291 291 290 289 288 288 287 286 285 284 283 282 282 281 280 279 279 278 277 277 276 276 275 274 274 273 272 272 271 271 270 270 270
302 302 303 303 303 303 303 303 303 303 303 303 303 302 302 303 303 303 303 303 303 304 304 304 303 303 303 303 302 302 301 300 300 299 298 298 297 297 296 296 295 295 295 294 294 294 294 293 293 293 293 292 292 291 290 290 289 288 287 286 286 285 284 283 282 282 281 280 279 278 278 277 277 276 275 275 274 273 273 272 272 272 271 271 271 270
302 302 302 303 303 303 303 303 303 303 303 303 303 303 302 303 303 304 304 304 304 305 304 304 304 304 304 303 303 302 302 301 300 299 298 298 297 296 296 295 295 295 295 295 295 294 294 294 294 293 293 292 292 291 290 289 288 288 287 286 285 284 284 283 282 281 280 280 279 278 278 277 276 276 275 274 274 273 273 272 272 272 271 271 271 270
302 302 303 303 303 303 303 303 303 303 304 304 304 304 303 304 304 305 305 305 305 305 305 305 304 304 304 303 303 303 302 301 300 299 299 298 297 296 296 296 295 295 295 295 295 295 295 295 294 294 293 292 292 291 290 289 288 287 286 286 285 284 283 283 282 281 280 280 279 278 278 277 276 275 275 274 273 273 273 272 272 272 271 271 271 270
302 303 303 303 303 303 303 303 304 304 304 304 304 304 304 305 305 305 305 305 305 305 305 305 305 304 304 304 303 303 302 301 300 300 299 298 297 297 297 296 296 296 296 296 296 296 296 296 295 295 294 293 292 291 290 289 288 287 286 285 285 284 283 283 282 281 281 280 279 279 278 277 276 275 274 274 273 273 273 272 272 272 271 271 270 270
303 303 303 303 303 303 303 304 304 304 304 305 305 305 305 306 306 306 305 305 305 305 305 305 305 304 304 304 303 303 302 301 300 300 299 298 298 298 297 297 297 297 297 296 296 297 297 297 296 295 294 293 292 291 290 289 288 287 286 286 285 284 284 283 283 282 281 281 280 279 278 277 276 275 275 274 273 273 273 273 272 272 271 271 270 269
303 303 303 303 303 303 304 304 305 305 305 305 305 306 306 306 306 306 306 306 306 306 306 305 305 304 304 304 303 303 302 301 300 300 299 299 298 299 298 298 297 297 297 297 297 297 298 297 297 296 295 294 292 291 290 289 288 288 287 286 285 285 284 284 283 283 282 281 280 279 278 278 277 276 275 274 274 273 273 273 272 272 271 271 270 269
303 303 303 303 304 304 304 305 305 305 305 306 306 307 307 307 307 307 306 306 306 306 306 305 305 305 304 304 304 303 303 302 301 300 300 299 299 299 299 299 298 298 298 298 298 298 298 298 297 296 296 294 293 292 291 290 289 288 287 287 286 286 285 284 284 283 282 281 281 280 279 278 277 276 276 275 274 274 274 273 272 272 271 270 269 268
303 304 304 304 304 304 305 305 306 306 306 307 307 307 307 307 307 307 306 306 306 306 305 305 305 305 304 304 304 304 304 303 302 301 301 300 300 300 300 299 299 298 298 299 299 299 299 299 298 297 296 295 294 293 292 291 290 289 288 287 287 286 286 285 284 284 283 282 281 280 279 279 278 277 276 275 275 275 274 273 273 272 271 270 269 268
304 304 304 304 304 305 306 306 306 307 307 307 307 307 307 307 307 306 306 306 305 305 305 305 304 304 304 304 304 304 305 304 303 302 301 300 300 301 301 300 299 299 299 299 299 299 299 299 299 298 297 296 295 294 293 291 291 290 289 289 288 287 287 286 285 284 284 283 282 281 280 279 278 277 277 276 275 275 274 274 273 272 271 270 269 267
304 304 304 305 305 305 306 306 307 307 307 307 308 308 307 307 306 306 305 305 305 304 304 304 304 304 304 303 304 304 305 304 303 302 301 301 300 301 301 301 300 299 299 300 300 300 300 299 299 298 297 296 295 294 293 292 292 291 290 290 289 288 288 287 286 285 285 284 283 282 281 280 279 278 277 277 276 275 275 274 273 272 271 270 269 267
304 304 305 305 306 306 306 307 307 307 308 308 308 307 307 306 306 306 305 305 305 304 304 304 304 304 304 304 304 304 305 305 304 302 301 301 301 301 301 301 300 300 299 300 300 300 300 299 299 298 297 296 296 295 294 293 292 292 291 290 290 289 288 288 287 286 285 285 284 283 281 280 279 278 278 277 276 276 275 274 273 272 271 270 269 268
304 305 305 306 306 307 307 307 307 308 308 308 308 307 306 306 306 305 305 306 305 305 305 305 305 304 304 304 304 304 305 305 304 303 302 301 301 301 301 301 300 300 299 299 300 300 299 299 298 298 297 296 296 295 294 293 293 292 291 291 290 289 289 288 287 287 286 285 284 283 282 281 280 279 278 277 277 276 275 274 273 273 272 271 269 268
305 305 306 306 307 307 307 307 307 308 308 307 307 306 306 306 306 306 306 307 307 306 306 305 305 304 304 304 304 304 305 304 303 302 302 301 300 301 301 301 300 299 299 299 299 299 299 298 298 297 297 296 295 295 294 293 293 292 291 291 290 289 289 288 288 287 286 285 285 284 283 282 281 280 279 278 277 276 276 275 274 273 272 271 270 269
305 305 306 307 307 307 307 307 307 307 307 307 306 306 306 306 306 307 307 307 307 306 306 305 305 304 304 304 304 304 305 304 303 303 302 301 300 301 302 301 300 299 298 299 299 299 298 297 297 297 296 296 295 294 293 293 292 291 291 290 290 289 289 288 288 287 287 286 285 285 284 283 282 281 280 279 278 277 276 275 274 273 272 271 270 269
305 306 306 307 307 307 307 307 307 307 307 307 306 306 306 307 307 307 307 307 306 306 305 305 305 305 305 305 305 305 305 305 304 304 302 301 301 301 302 302 301 299 298 299 299 298 297 296 296 296 296 295 294 294 293 292 291 291 290 290 290 289 289 289 288 288 287 287 286 285 284 283 282 281 280 279 278 277 276 275 274 273 272 271 270 269
306 306 307 307 307 307 307 307 307 307 306 306 307 307 307 307 306 306 306 306 306 306 306 306 306 306 306 306 306 306 306 306 305 304 303 302 301 301 302 301 300 299 298 299 298 298 297 296 295 295 295 295 294 293 292 292 291 290 290 289 289 289 289 288 288 288 287 287 286 285 285 284 282 281 280 279 278 277 276 275 274 273 272 271 270 269
306 307 307 307 307 307 307 306 306 306 306 306 306 306 306 306 306 306 306 306 307 307 307 307 307 307 307 308 307 307 308 307 306 305 303 302 302 301 301 301 300 299 299 298 298 297 296 295 295 294 294 294 294 293 292 291 291 290 289 289 289 288 288 288 288 288 287 287 286 286 285 284 283 282 281 280 279 278 276 275 274 273 272 271 270 269
307 307 307 307 307 307 307 306 306 306 306 306 306 306 307 307 307 307 307 308 308 309 309 308 308 308 308 308 308 308 308 308 307 305 304 303 302 301 302 302 301 300 299 298 298 297 296 295 294 294 293 293 293 292 291 291 290 290 289 289 288 288 288 288 288 288 288 288 287 287 286 285 284 283 282 281 279 278 277 275 274 273 271 270 269 268
308 308 308 308 308 307 306 306 306 306 307 307 307 308 308 309 309 309 309 310 310 310 309 309 309 309 309 308 308 308 308 308 307 306 305 303 302 302 302 302 302 301 300 299 298 297 296 295 294 293 293 292 292 292 291 291 290 290 289 289 289 289 289 289 289 288 288 288 288 287 287 286 285 284 283 282 280 279 277 276 274 273 271 270 269 268
309 309 308 308 307 307 306 307 307 308 308 309 309 310 310 311 311 310 311 312 312 311 310 309 309 309 309 309 309 309 309 308 308 307 306 305 304 303 304 304 303 302 301 300 299 298 296 295 294 293 293 292 292 292 292 292 291 291 290 290 290 289 289 289 289 289 288 288 288 288 287 287 286 285 284 283 281 280 278 277 275 273 271 270 268 267
309 309 308 307 307 307 307 308 309 309 310 311 311 312 313 313 313 312 313 313 312 311 311 310 310 310 310 311 311 311 310 310 310 309 309 307 306 305 306 305 304 303 303 302 301 299 297 296 295 294 293 293 292 292 292 292 292 292 291 291 290 290 290 289 289 289 289 288 288 288 287 287 286 286 285 284 282 281 279 278 276 274 271 269 268 267
309 308 307 307 308 308 309 310 310 311 312 313 314 315 315 315 315 314 314 314 313 313 312 312 312 312 312 312 313 312 312 312 312 312 311 309 308 308 308 307 306 305 304 304 303 301 300 298 297 295 294 294 293 293 293 293 293 292 292 291 291 290 290 290 290 289 289 288 288 288 288 287 287 286 286 285 283 282 280 279 276 274 271 270 268 267
308 308 308 308 309 310 311 311 312 313 314 315 316 316 316 316 316 316 315 315 315 314 314 314 314 314 313 313 313 313 313 314 314 314 314 312 311 310 310 309 308 307 306 305 303 302 301 300 298 297 296 295 294 293 293 293 293 293 292 292 291 291 291 290 290 289 289 289 288 288 288 288 287 287 286 285 284 283 281 280 277 275 272 270 269 268
307 308 308 309 310 311 312 313 314 315 316 317 318 318 318 318 317 317 317 317 317 316 316 316 315 315 315 315 314 314 314 315 316 317 316 315 314 313 313 312 310 309 308 306 304 302 301 300 299 298 297 296 295 294 294 294 293 293 292 292 291 291 291 291 290 289 289 289 288 288 288 288 287 287 287 286 285 284 282 281 278 276 273 271 269 268
308 308 309 310 311 312 313 315 316 317 318 318 319 319 319 319 319 319 319 319 319 319 318 318 318 317 317 317 316 316 317 318 318 319 318 317 316 316 315 314 313 312 311 309 307 305 302 301 300 300 298 297 296 295 295 294 294 293 293 292 292 291 291 291 290 290 289 289 289 288 288 288 288 287 287 286 286 285 283 282 279 277 274 272 270 268
308 309 310 311 312 314 315 317 318 318 319 319 320 320 320 320 321 321 321 321 321 321 321 320 320 319 319 318 318 318 319 320 320 321 320 319 318 318 317 317 316 315 313 312 310 308 306 303 302 301 300 299 297 296 296 295 295 294 294 293 292 292 291 291 290 290 289 289 289 289 289 288 288 288 287 286 286 285 284 282 280 278 275 272 270 268
308 309 310 312 314 316 317 318 319 319 320 320 321 321 321 322 322 323 323 323 323 323 322 322 321 321 320 319 319 319 319 321 321 322 321 321 320 319 319 318 317 316 315 313 311 309 307 305 304 302 301 300 299 298 297 297 296 296 295 294 294 293 292 292 291 290 290 290 289 289 289 289 288 288 287 286 286 285 284 283 281 279 276 273 270 268
308 309 311 314 316 317 319 319 320 320 321 321 322 322 322 323 323 324 324 324 324 324 323 323 322 322 321 320 320 320 320 321 322 322 322 322 321 320 319 318 318 317 315 314 312 310 308 306 305 303 302 300 300 300 300 299 299 298 297 296 295 295 294 293 292 291 290 290 290 290 290 289 288 288 287 287 286 286 285 283 281 279 276 273 271 269
309 311 313 316 317 319 320 321 321 321 322 322 323 323 323 324 324 324 324 324 325 325 325 325 324 323 322 321 321 320 321 321 321 321 322 322 321 321 319 318 318 317 316 314 312 310 309 307 306 305 304 302 301 301 301 301 300 300 299 298 297 296 295 294 293 292 291 291 290 290 290 290 289 289 288 288 287 287 286 284 282 279 276 274 271 269
311 313 315 317 319 320 321 322 322 322 323 323 323 323 324 324 324 324 325 325 325 326 326 326 326 325 324 323 322 322 322 322 322 322 322 322 322 321 320 319 318 317 316 314 312 310 309 307 306 306 306 305 304 304 303 303 302 301 301 300 299 297 296 295 294 293 293 292 292 291 291 291 290 290 289 289 289 288 286 285 282 280 277 274 272 270
314 316 317 319 320 321 322 322 323 323 324 324 324 324 324 324 325 325 325 326 326 327 327 327 327 326 326 325 324 324 324 324 324 323 323 323 323 322 321 320 318 318 317 315 314 312 310 309 307 307 306 306 306 306 305 304 303 303 302 301 300 299 298 297 296 295 294 294 293 293 293 293 292 292 291 290 289 288 286 285 282 280 277 274 272 271
316 317 319 320 321 322 323 324 324 324 324 324 325 325 325 325 326 326 327 327 328 329 329 329 329 328 328 327 326 326 325 325 325 325 324 324 323 323 322 321 320 319 318 317 316 314 313 311 310 310 309 308 308 307 306 306 305 304 303 301 300 300 300 299 298 297 297 296 296 295 295 295 294 293 293 292 290 288 287 284 282 279 277 274 272 270
317 319 320 322 323 324 324 325 325 325 325 325 325 325 326 326 326 327 328 329 330 331 331 332 331 330 329 329 329 328 328 328 327 327 326 325 325 324 324 323 322 322 321 320 318 317 316 315 313 312 312 311 310 309 308 308 307 306 304 303 302 302 302 301 300 300 299 299 299 298 298 297 296 296 295 293 292 290 287 284 281 279 277 274 272 270
319 320 321 323 324 325 325 326 326 326 326 326 326 326 326 327 327 328 328 329 330 331 332 332 332 331 330 330 330 331 330 330 329 329 328 327 327 326 326 325 324 324 323 321 320 320 319 318 316 315 314 313 312 310 309 309 309 307 306 304 304 303 302 302 303 303 302 301 301 301 300 299 299 298 296 294 292 290 287 284 281 279 276 274 272 270
320 321 323 324 325 326 327 327 327 327 327 326 326 326 326 327 328 328 329 330 331 331 332 332 332 331 330 330 331 331 332 332 332 330 330 329 328 327 327 326 326 325 324 322 321 320 320 319 318 316 316 314 313 311 310 309 309 308 307 306 304 302 300 301 303 304 303 303 303 303 302 301 300 299 297 295 293 290 287 284 282 279 276 274 272 270
321 323 324 325 327 327 328 328 328 327 327 326 326 326 327 328 329 330 330 331 331 331 331 332 332 331 330 331 331 332 332 333 334 333 332 331 329 328 328 327 327 326 324 322 321 320 320 319 318 318 317 315 313 311 310 309 308 307 307 306 305 303 302 303 304 304 303 303 303 303 303 302 300 298 296 294 292 289 286 283 281 278 276 273 270 268
323 324 325 326 327 328 328 328 328 328 327 327 327 327 328 329 330 331 331 331 331 331 331 332 332 331 330 331 331 332 332 333 333 334 334 333 331 330 329 328 327 326 325 323 322 321 320 318 318 318 318 316 314 312 311 310 308 308 307 307 306 305 305 305 304 304 303 303 302 302 303 302 300 297 294 293 291 288 286 282 279 276 274 271 268 265
324 325 326 327 328 328 329 329 329 329 328 328 328 328 329 330 331 332 332 332 331 331 331 332 332 331 331 331 331 332 332 332 332 333 333 333 332 332 330 329 328 326 325 324 323 321 320 319 318 318 317 316 315 314 313 312 311 309 309 309 308 307 306 305 305 305 304 303 302 302 303 302 299 296 294 293 291 289 286 283 279 276 273 271 268 265
325 326 327 328 329 329 330 330 330 330 330 329 329 330 331 332 332 333 332 332 332 331 332 332 332 332 331 331 332 332 331 331 331 331 331 332 332 332 331 330 329 328 326 325 323 322 321 320 319 318 317 316 316 316 315 315 314 312 311 311 309 308 306 306 306 306 305 304 303 303 303 301 299 297 296 294 292 290 287 285 282 279 276 273 271 268
326 327 328 329 329 330 331 331 331 331 331 331 331 331 332 333 333 333 333 332 332 332 332 332 332 332 331 332 332 332 332 331 331 331 331 331 331 331 331 331 330 329 328 326 325 324 322 321 320 319 318 317 316 316 316 316 316 315 313 312 310 308 307 306 306 306 306 305 304 304 303 302 300 299 298 296 294 292 290 288 286 284 281 278 275 272
327 328 328 329 330 331 331 332 332 332 332 332 332 333 334 334 334 334 333 333 333 333 332 332 332 332 331 331 332 332 332 332 331 331 331 331 331 331 331 331 330 330 328 327 327 326 325 323 322 321 320 319 317 316 316 316 316 315 314 312 310 309 308 307 306 306 306 305 305 304 303 303 302 301 299 297 296 295 294 292 290 288 285 282 279 277
327 328 329 330 330 331 331 332 332 332 333 333 333 334 334 335 335 334 334 334 333 333 333 333 332 332 331 331 331 332 332 332 331 331 331 332 332 331 331 331 331 330 329 328 328 327 327 326 324 323 323 321 320 318 317 316 316 315 313 311 310 309 307 306 306 305 305 305 304 304 304 303 302 301 300 299 297 297 296 294 293 291 289 287 284 281